Location: Orson Pratt Observatory
(40.2472°N, 111.6506°W)
Time: 18:32:57

Tiangong 1 - Visible Passes

Search period start: 23 March 2018 00:00
Search period end: 02 April 2018 00:00
Orbit: 207 x 229 km, 42.7° (Epoch: 23 March)

Date Brightness Start Highest point End Pass type
(mag) Time Alt. Az. Time Alt. Az. Time Alt. Az.
29 Mar 2.8 06:18:16 10° S 06:18:57 11° SSE 06:19:38 10° SE visible
30 Mar 2.7 05:53:55 12° SSE 05:53:55 12° SSE 05:54:47 10° ESE visible
01 Apr -0.2 06:31:58 14° W 06:33:30 68° NNW 06:35:22 10° ENE visible
